Content
SEND FEEDBACK

Daily
Averages
Monthly
Summary
India

CHENNAI, INDIA


Home > Asia > India
Elevation: 52 feet     Latitude: 13 00N     Longitude: 080 11E

WEATHER
 
SELECT A DAY
Number of Records: 209,011;   Date Range: 7/1/96 - 12/26/14
 
SHARE

PRINT THIS DATA

[ ← Previous Day ]
WEATHER ALMANAC - NOVEMBER 9, 2013
[ Next Day → ]
[ °C ]   °F
Weather ElementAverageHighLow
Temperature79.7 °F88 °F (2:30 pm)73.4 °F (1:40 am)
Dewpoint68.3 °F71.6 °F (7:10 am)60.8 °F (10:40 am)
Humidity68.5 %89 % (7:10 am)38 % (11:30 am)
Barometer29.85 in29.95 in (8:30 am)29.77 in (3:10 pm)
Wind Speed6.2 mph13.8 mph (10:40 am)
Weather ElementAverage
Visibility3.1 mi
Wind DirectionESE (122.9 °)

Weather ElementTotal
Precipitation---
Cooling Degree Days15.7 (Base 65)
Growing Degree Days30.7 (Base 50)
Averaged from 51 records on November 9, 2013
WEATHER CONDITIONS BREAKOUT
WIND DIRECTION BREAKOUT
WEATHER BY HOUR - NOVEMBER 9, 2013
[ °C ]   °F
Local TimeTemperatureDewpointHumidityBarometerVisibilityWind DirectionWind SpeedGust SpeedPrecipitationEventsConditions
12:40 AM75.2 °F69.8 °F83 %29.86 in3.1 miNNE (30°)2.3 mphHaze
1:10 AM75.2 °F69.8 °F83 %29.83 in3.1 miNNW (340°)2.3 mphHaze
1:40 AM73.4 °F69.8 °F88 %29.83 in3.1 miNNW (330°)3.5 mphHaze
2:10 AM73.4 °F69.8 °F88 %29.83 in2.5 miCalmHaze
2:30 AM76.0 °F70.0 °F77 %29.85 in2.0 miCalmPartly Cloudy
2:40 AM73.4 °F69.8 °F88 %29.83 in2.2 miNW (320°)3.5 mphHaze
3:10 AM73.4 °F69.8 °F88 %29.83 in2.2 miNW (310°)3.5 mphHaze
3:40 AM73.4 °F69.8 °F88 %29.83 in2.2 miNNE (30°)4.6 mphHaze
4:10 AM73.4 °F69.8 °F88 %29.83 in2.2 miNE (40°)4.6 mphHaze
4:40 AM73.4 °F69.8 °F88 %29.83 in2.2 miNNE (30°)4.6 mphHaze
5:30 AM76.0 °F69.0 °F73 %29.88 in2.0 miCalmPartly Cloudy
5:40 AM73.4 °F69.8 °F88 %29.86 in1.9 miNNW (330°)2.3 mphHaze
6:10 AM73.4 °F69.8 °F88 %29.86 in1.6 miWNW (290°)3.5 mphHaze
6:40 AM73.4 °F69.8 °F88 %29.89 in1.6 miWNW (290°)4.6 mphHaze
7:10 AM75.2 °F71.6 °F89 %29.89 in1.2 miWNW (290°)4.6 mphScattered Clouds
7:40 AM77.0 °F71.6 °F83 %29.92 in1.6 miWNW (300°)4.6 mphHaze
8:10 AM78.8 °F71.6 °F78 %29.92 in1.6 miVariable2.3 mphHaze
8:30 AM81.0 °F70.0 °F61 %29.95 in6.0 miNorth2.3 mphScattered Clouds
9:10 AM82.4 °F68.0 °F62 %29.92 in2.5 miNorth (10°)6.9 mphHaze
10:10 AM84.2 °F62.6 °F48 %29.92 in3.7 miNNE (20°)11.5 mphPartly Cloudy
10:40 AM86.0 °F60.8 °F43 %29.92 in3.7 miNNE (20°)13.8 mphPartly Cloudy
11:10 AM86.0 °F64.4 °F48 %29.89 in3.7 miNE (50°)13.8 mphPartly Cloudy
11:30 AM87.0 °F65.0 °F38 %29.91 in6.0 miNE (50°)4.6 mphScattered Clouds
11:40 AM86.0 °F64.4 °F48 %29.86 in3.7 miNE (50°)11.5 mphPartly Cloudy
12:10 PM86.0 °F64.4 °F48 %29.86 in3.7 miNE (50°)9.2 mphPartly Cloudy
12:40 PM84.2 °F64.4 °F51 %29.83 in3.7 miNE (40°)11.5 mphPartly Cloudy
1:10 PM86.0 °F64.4 °F48 %29.83 in3.7 miNE (40°)11.5 mphPartly Cloudy
1:40 PM86.0 °F66.2 °F51 %29.80 in3.7 miNNE (30°)11.5 mphPartly Cloudy
2:10 PM86.0 °F66.2 °F51 %29.80 in3.7 miNE (40°)11.5 mphScattered Clouds
2:30 PM88.0 °F68.0 °F42 %29.83 in6.0 miNE (50°)3.5 mphScattered Clouds
2:40 PM86.0 °F68.0 °F55 %29.80 in3.7 miNE (50°)11.5 mphScattered Clouds
3:10 PM86.0 °F68.0 °F55 %29.77 in3.7 miENE (60°)11.5 mphScattered Clouds
3:40 PM84.2 °F68.0 °F58 %29.80 in3.7 miNE (50°)11.5 mphScattered Clouds
4:10 PM82.4 °F68.0 °F62 %29.80 in3.7 miNE (40°)13.8 mphScattered Clouds
4:40 PM82.4 °F66.2 °F58 %29.80 in3.7 miNNE (30°)11.5 mphScattered Clouds
5:10 PM82.4 °F68.0 °F62 %29.80 in3.7 miNNE (20°)11.5 mphScattered Clouds
5:30 PM83.0 °F68.0 °F53 %29.83 in6.0 miNNE (20°)3.5 mphPartly Cloudy
5:40 PM82.4 °F68.0 °F62 %29.80 in3.7 miNE (40°)9.2 mphScattered Clouds
6:10 PM80.6 °F68.0 °F65 %29.80 in3.1 miNNE (20°)9.2 mphHaze
6:40 PM80.6 °F68.0 °F65 %29.83 in3.1 miNorth (10°)8.1 mphHaze
7:10 PM78.8 °F68.0 °F69 %29.83 in3.1 miNNE (20°)6.9 mphHaze
7:40 PM78.8 °F69.8 °F74 %29.86 in3.1 miNorth (350°)4.6 mphHaze
8:10 PM78.8 °F69.8 °F74 %29.86 in3.1 miNorth (350°)3.5 mphHaze
8:30 PM81.0 °F70.0 °F61 %29.90 in2.0 miNNE (20°)2.3 mphScattered Clouds
8:40 PM78.8 °F69.8 °F74 %29.86 in3.1 miNorth (10°)3.5 mphHaze
9:10 PM77.0 °F69.8 °F78 %29.86 in2.5 miNorth (360°)4.6 mphHaze
9:40 PM77.0 °F69.8 °F78 %29.86 in2.5 miNorth (350°)3.5 mphHaze
10:10 PM77.0 °F69.8 °F78 %29.86 in2.5 miNorth (350°)3.5 mphHaze
10:40 PM77.0 °F69.8 °F78 %29.86 in2.5 miNorth (360°)3.5 mphHaze
11:30 PM79.0 °F71.0 °F71 %29.88 in2.0 miCalmHaze
11:40 PM77.0 °F69.8 °F78 %29.83 in1.9 miNorth (10°)3.5 mphHaze
Hourly data recorded from VOMM, located miles away from Chennai, India







STORIES FROM OUR PARTNERS